Regional Weather Roundup
Issued by NWS Jackson, KY

Home | Current Version | Previous Version | Text Only | Print | Product List | Glossary Off
Versions: 1 2 3 4 5 6 7 8 9 10 11 12 13 14 15 16 17 18 19 20 21 22 23 24 25 26 27 28 29 30 31 32 33 34 35 36 37 38 39 40 41 42 43 44 45 46 47 48 49 50

000
ASUS43 KJKL 300505
RWRJKL

EAST KENTUCKY HOURLY WEATHER ROUNDUP
NATIONAL WEATHER SERVICE JACKSON KY
1200 AM EST FRI JAN 30 2015

NOTE: "FAIR" INDICATES FEW OR NO CLOUDS BELOW 12,000 FEET WITH
NO SIGNIFICANT WEATHER AND/OR OBSTRUCTIONS TO VISIBILITY.

* THESE REPORTS ARE NOT UNDER NWS QUALITY CONTROL AND MAY NOT
  REPORT WEATHER SUCH AS PRECIPITATION AND FOG.

KYZ079-080-083-085-087-088-110-112-115-119-120-300600
...EASTERN KENTUCKY...

CITY           SKY/WX    TMP DP  RH WIND       PRES   REMARKS
JACKSON        CLOUDY    33  30  88 W12G18    30.17R WCI  24
LONDON         CLOUDY    35  28  75 NW13      30.21R WCI  26
SOMERSET*      CLOUDY    34  28  80 NW14G20   30.26R WCI  24
MONTICELLO*    CLOUDY    37  30  76 NW15      30.29R WCI  28
MIDDLESBORO*   CLOUDY    38  31  75 NW9G17    30.19S WCI  32
HARLAN APT*    CLOUDY    36  32  87 W6        30.16S WCI  31
BLACK MTN*       N/A     27  27 100 N7          N/A  WCI  19
PIKEVILLE APT* CLOUDY    36  30  80 NW17G23   30.13R WCI  25
BIG SANDY*     CLOUDY    35  32  88 NW9       30.14R WCI  28
MOREHEAD APT*  CLOUDY    32  30  93 W8        30.20S FOG     WCI  25
$$

KYZ035-036-041-042-044-050-067-078-099-300600
...CENTRAL KENTUCKY...

CITY           SKY/WX    TMP DP  RH WIND       PRES   REMARKS
MT STERLING*   CLOUDY    32  32 100 NW9       30.22R WCI  24
FLEMING/MASON* CLOUDY    32  30  91 W13       30.20R FOG     WCI  23
DANVILLE*      CLOUDY    34  30  86 NW10      30.25R WCI  26
RICHMOND*      CLOUDY    34  30  86 NW13      30.22S WCI  25
LEXINGTON      CLOUDY    33  30  88 NW9       30.23R WCI  25
FRANKFORT      CLOUDY    34  29  82 W7        30.23R WCI  28
$$

KYZ091>093-OHZ055-061-077-WVZ005-015-034-035-042-300600
...SOUTHERN OHIO/WEST VIRGINIA...

CITY           SKY/WX    TMP DP  RH WIND       PRES   REMARKS
COVINGTON      CLOUDY    34  28  79 W15       30.20R WCI  24
COLUMBUS       FLURRIES  32  28  85 NW14      30.09R WCI  22
DAYTON         CLOUDY    33  29  85 NW14      30.15R WCI  23
WILMINGTON     CLOUDY    32  28  85 NW10      30.14R WCI  24
HUNTINGTON     LGT SNOW  33  30  88 W8G22     30.14R FOG     WCI  26
CHARLESTON     FLURRIES  36  29  75 W15G23    30.09R WCI  27
PINEVILLE*     MIX PCPN  38  36  92 MISG      30.10R
BECKLEY        MIX PCPN  34  30  85 W15G24    30.00R WCI  24
BLUEFIELD      CLOUDY    36  31  82 W14G22    30.00R WCI  27
$$

VAZ002-007-008-TNZ017-027-036-066-071-300600
...SOUTHWEST VIRGINIA/EAST TENNESSEE...

CITY           SKY/WX    TMP DP  RH WIND       PRES   REMARKS
WISE*          MIX PCPN  34  34 100 NW14G21   30.08R WCI  24
JONESVILLE*    CLOUDY    37  32  81 NW7       30.16R WCI  32
ABINGDON*      DRIZZLE   40  36  85 NW9G17    30.05R WCI  34
BRISTOL        LGT RAIN  41  37  86 W7G20     30.08R
KNOXVILLE      CLOUDY    42  34  73 W10       30.19R
OAK RIDGE      CLOUDY    42  31  64 NW9       30.20R
CROSSVILLE     CLOUDY    36  28  73 NW14G25   30.22R WCI  27
NASHVILLE      CLOUDY    41  31  67 NW10G20   30.33R
$$

...KEY TO REMARKS...
VSB - VISIBILITY IN MILES
WCI - WIND CHILL INDEX
HX  - HEAT INDEX

$$


USA.gov is the U.S. government's official web portal to all federal, state and local government web resources and services.